[[{"header":{"parameterUnit":"m.s-1","parameterCategory":1,"la1":30.2991,"la2":30.254,"lo1":-89.0895,"lo2":-89.0444,"dy":0.0017,"dx":0.0017,"nx":28,"ny":28,"refTime":"2025-03-14T21:00:00:Z","depth":0,"parameterNumber":2,"parameterNumberName":"U-component_of_WINDS"},"data":[0,0,0,0,0,0,0,0,0,0,0,0,0,0,0,0,0,0,0,0,0,0,0,0,0,0,0,0,0,0,0,0,0,0,0,0,0,0,0,0,0,0,0,0,0,0,0,0,0,0,0,0,0,0,0,0,0,0,5.5263,5.5264,0,5.5392,5.5393,5.5395,5.5357,5.5355,5.5352,5.5349,5.5485,5.5491,5.5497,0,0,0,0,0,0,0,0,0,0,0,0,0,5.499,5.4995,5.5263,5.5264,5.5266,5.5391,5.5393,5.5395,5.5358,5.5355,5.5351,5.5348,5.5483,5.549,5.5497,0,0,0,0,0,0,0,0,0,0,0,0,0,5.5113,5.4997,5.5262,5.5262,5.5264,5.5391,5.5393,5.5395,5.5358,5.5354,5.535,5.5347,5.548,5.5489,5.5498,5.5634,0,0,5.5526,5.553,0,0,0,0,0,0,0,0,5.5106,5.5123,5.5261,5.5263,5.5264,5.5354,5.5346,5.5476,5.5359,5.5323,5.5349,5.5345,5.5445,5.5456,5.5489,5.564,5.5646,5.5527,5.5532,5.5536,5.5539,0,0,0,0,0,0,0,5.5097,5.5117,5.5314,5.5263,5.5265,5.5258,5.5271,5.5371,5.5405,5.5325,5.5323,5.5339,5.5445,5.5481,5.5492,5.5648,5.5526,5.5535,5.554,5.5544,5.5923,5.5927,0,0,0,0,0,0,5.5087,5.511,5.531,5.5318,5.5173,5.5266,5.528,5.5329,5.5403,5.5411,5.5342,5.5336,5.5467,5.5482,5.5497,5.5665,5.5536,5.5545,5.555,5.5918,5.5924,5.5929,0,0,0,0,0,0,5.5081,5.5105,5.5304,5.5213,5.5238,5.5275,5.533,5.5334,5.537,5.5416,5.5422,5.5372,5.5465,5.5484,5.5601,5.5669,5.5549,5.5557,5.5913,5.592,5.5926,5.5999,0,0,0,0,0,0,5.5073,5.5103,5.5154,5.5215,5.5243,5.5405,5.5334,5.5339,5.5385,5.5379,5.5446,5.5453,5.5463,5.5588,5.561,5.5679,5.5564,5.5907,5.5916,5.5924,5.5991,5.6007,5.6022,0,0,0,0,0,5.5064,5.5168,5.5156,5.5181,5.5307,5.5409,5.5425,5.5434,5.5391,5.5443,5.5474,5.5451,5.5657,5.56,5.5625,5.5698,5.5903,5.5913,5.5923,5.5984,5.6004,5.6021,0,0,0,0,0,0,5.5114,5.5176,5.5163,5.5291,5.5345,5.5402,5.5468,5.5455,5.5523,5.5514,5.5523,5.5539,5.5659,5.569,5.5625,5.5836,5.5774,5.579,5.5811,5.5831,5.5846,5.5837,5.5572,0,0,0,0,0,5.514,5.5217,5.5267,5.5375,5.5403,5.5431,5.5476,5.5478,5.5535,5.5558,5.5596,5.5653,5.5732,5.5783,5.5857,5.5995,5.6011,5.6057,5.6073,5.6085,5.6099,5.6179,5.6201,5.5963,5.5963,5.5962,0,0,5.5195,5.5238,5.5286,5.5386,5.5428,5.551,5.545,5.5538,5.5599,5.5571,5.5685,5.5715,5.578,5.5909,5.5968,5.5938,5.6169,5.6098,5.6108,5.6116,5.6192,5.6214,5.6234,5.597,5.5968,5.5967,0,0,5.5336,5.5375,5.5471,5.5515,5.558,5.5599,5.5622,5.5682,5.5702,5.5816,5.5798,5.5872,5.6005,5.6053,5.6095,5.6259,5.6242,5.6283,5.6364,5.6442,5.646,5.6477,5.6539,5.6561,5.6296,5.6296,5.6296,0,5.5396,5.5516,5.5522,5.5613,5.5659,5.5638,5.5737,5.5779,5.5865,5.5899,5.5864,5.6034,5.6076,5.6218,5.6258,5.6292,5.6321,5.6275,5.6457,5.6474,5.649,5.6549,5.6572,5.6301,5.6301,5.63,5.63,0,5.5588,5.5672,5.5742,5.5827,5.5881,5.5975,5.5998,5.6052,5.6051,5.6074,5.6193,5.6242,5.6328,5.6362,5.636,5.6505,5.6485,5.6454,5.6392,5.6517,5.6573,5.6595,5.6308,5.6306,5.6305,5.6304,0,0,5.5764,5.5853,5.5879,5.5918,5.599,5.6056,5.6151,5.6234,5.6283,5.6343,5.6425,5.654,5.6513,5.6561,5.6565,5.6633,5.6764,5.6594,5.6595,5.6626,5.6931,5.6956,5.6982,5.6753,5.6757,5.676,5.6927,0,5.5914,5.6079,5.609,5.6241,5.6321,5.6303,5.6387,5.6441,5.6466,5.6539,5.6567,5.665,5.6605,5.6635,5.6701,5.6734,5.6826,5.6722,5.6832,5.6836,5.6818,5.701,5.7036,5.719,5.6948,5.6952,5.6954,0,5.611,5.6178,5.6338,5.6401,5.6435,5.651,5.6589,5.6658,5.6721,5.6735,5.679,5.6786,5.6886,5.6821,5.6961,5.689,5.6936,5.696,5.6966,5.6978,5.6904,5.703,5.7239,5.7263,5.6988,5.6985,5.6983,0,5.6227,5.6358,5.6471,5.6505,5.6582,5.6635,5.667,5.6728,5.6779,5.6849,5.6883,5.6964,5.7009,5.7073,5.7092,5.7042,5.7233,5.7168,5.725,5.725,5.7292,5.729,5.7514,5.7318,5.7318,5.7317,5.7317,0,5.6394,5.6493,5.6525,5.6595,5.6707,5.6718,5.6829,5.6861,5.6914,5.6991,5.6981,5.7054,5.7074,5.7152,5.7168,5.7284,5.7303,5.732,5.7323,5.7322,5.732,5.7353,5.7344,5.7324,5.7322,5.7321,5.732,0,5.6544,5.6568,5.6691,5.6754,5.6773,5.6853,5.6908,5.6976,5.7001,5.71,5.7123,5.7162,5.7254,5.7279,5.7389,5.7399,5.7537,5.7529,5.7516,5.7517,5.7598,5.7591,5.7854,5.789,5.7668,5.767,5.7672,0,5.665,5.6726,5.6798,5.6849,5.6886,5.6968,5.7021,5.7036,5.7092,5.7171,5.7231,5.7321,5.7394,5.7542,5.7582,5.7666,5.7662,5.7748,5.7675,5.7673,5.7667,5.7663,5.7673,5.7763,5.7765,5.7767,5.7769,0,5.6838,5.6847,5.6922,5.7004,5.7066,5.7131,5.7193,5.7236,5.7261,5.7324,5.7418,5.7474,5.7587,5.7679,5.7765,5.7803,5.7792,5.7791,5.7816,5.7816,5.7807,5.7816,5.7557,5.7786,5.7784,5.7783,5.7782,5.7781,5.6971,5.7039,5.7101,5.7187,5.7235,5.7294,5.7363,5.7397,5.7475,5.7568,5.7572,5.7675,5.774,5.7854,5.7897,5.7979,5.7954,5.7988,5.7997,5.8006,5.8014,5.7792,5.7995,5.7994,5.7994,5.7993,5.7993,0,5.7161,5.72,5.7279,5.7367,5.7435,5.7417,5.7486,5.7545,5.7635,5.7695,5.7768,5.7878,5.7967,5.8014,5.8103,5.816,5.8158,5.8183,5.8181,5.819,5.803,5.8002,5.8184,5.8184,5.8184,5.8184,5.8184,5.8184,5.7267,5.7383,5.74,5.7542,5.7581,5.7681,5.7722,5.7778,5.7827,5.7949,5.8023,5.8053,5.811,5.8203,5.8285,5.8297,5.8332,5.8361,5.8371,5.822,5.8201,5.8182,5.8156,5.8368,5.8368,5.8524,5.8526,5.8527]},{"header":{"parameterUnit":"m.s-1","parameterCategory":1,"la1":30.2991,"la2":30.254,"lo1":-89.0895,"lo2":-89.0444,"dy":0.0017,"dx":0.0017,"nx":28,"ny":28,"refTime":"2025-03-14T21:00:00:Z","depth":0,"parameterNumber":3,"parameterNumberName":"V-component_of_WINDS"},"data":[0,0,0,0,0,0,0,0,0,0,0,0,0,0,0,0,0,0,0,0,0,0,0,0,0,0,0,0,0,0,0,0,0,0,0,0,0,0,0,0,0,0,0,0,0,0,0,0,0,0,0,0,0,0,0,0,0,0,-0.8736,-0.8735,0,-0.8589,-0.8587,-0.8586,-0.8558,-0.8559,-0.8561,-0.8562,-0.8406,-0.8401,-0.8396,0,0,0,0,0,0,0,0,0,0,0,0,0,-0.8991,-0.8987,-0.8737,-0.8735,-0.8733,-0.8589,-0.8587,-0.8585,-0.8558,-0.8559,-0.8561,-0.8562,-0.8408,-0.8401,-0.8395,0,0,0,0,0,0,0,0,0,0,0,0,0,-0.8866,-0.8985,-0.8737,-0.8702,-0.8697,-0.859,-0.8587,-0.8585,-0.8558,-0.8559,-0.8561,-0.8563,-0.841,-0.8402,-0.8394,-0.8309,0,0,-0.837,-0.8367,0,0,0,0,0,0,0,0,-0.8873,-0.8856,-0.8709,-0.8704,-0.8699,-0.8594,-0.862,-0.8492,-0.8557,-0.8611,-0.8562,-0.8564,-0.8467,-0.8454,-0.8422,-0.8302,-0.8295,-0.8369,-0.8365,-0.8361,-0.8359,0,0,0,0,0,0,0,-0.8882,-0.8863,-0.8678,-0.8707,-0.8701,-0.8693,-0.8677,-0.8596,-0.853,-0.8606,-0.8604,-0.8587,-0.8464,-0.843,-0.8419,-0.8293,-0.837,-0.8363,-0.8358,-0.8355,-0.8096,-0.8094,0,0,0,0,0,0,-0.8897,-0.887,-0.8683,-0.8674,-0.8792,-0.8687,-0.8669,-0.8626,-0.8531,-0.8518,-0.8586,-0.8586,-0.8443,-0.8428,-0.8413,-0.8307,-0.8361,-0.8354,-0.8349,-0.8098,-0.8096,-0.8094,0,0,0,0,0,0,-0.8903,-0.8881,-0.8689,-0.8771,-0.8746,-0.868,-0.8632,-0.8622,-0.8588,-0.8516,-0.8503,-0.8563,-0.8444,-0.8424,-0.8336,-0.8302,-0.835,-0.8343,-0.8101,-0.8098,-0.8095,-0.8096,0,0,0,0,0,0,-0.891,-0.8883,-0.885,-0.8771,-0.8742,-0.8615,-0.863,-0.8618,-0.8575,-0.8574,-0.8491,-0.8479,-0.8443,-0.8348,-0.8328,-0.8292,-0.8337,-0.8104,-0.8099,-0.8096,-0.8098,-0.8093,-0.8088,0,0,0,0,0,-0.8919,-0.8855,-0.8849,-0.8826,-0.87,-0.8613,-0.8596,-0.8558,-0.8572,-0.8539,-0.8493,-0.8482,-0.8309,-0.8339,-0.8316,-0.8277,-0.8106,-0.8101,-0.8096,-0.8101,-0.8094,-0.8089,0,0,0,0,0,0,-0.8931,-0.8844,-0.8836,-0.8745,-0.8687,-0.8609,-0.8565,-0.8552,-0.8488,-0.849,-0.8444,-0.8425,-0.8339,-0.83,-0.8334,-0.8191,-0.8208,-0.8199,-0.8219,-0.8213,-0.8208,-0.8218,-0.833,0,0,0,0,0,-0.8923,-0.8861,-0.8788,-0.8714,-0.8686,-0.8631,-0.8591,-0.8567,-0.8504,-0.8479,-0.8426,-0.8365,-0.8297,-0.8253,-0.8186,-0.8093,-0.8075,-0.8055,-0.805,-0.8047,-0.8038,-0.7987,-0.7977,-0.8078,-0.8078,-0.8078,0,0,-0.8905,-0.8851,-0.8814,-0.8715,-0.8667,-0.8603,-0.861,-0.8541,-0.8492,-0.8468,-0.8382,-0.8341,-0.827,-0.8179,-0.8136,-0.8143,-0.8007,-0.8041,-0.8038,-0.8032,-0.7981,-0.7971,-0.7963,-0.8075,-0.8075,-0.8076,0,0,-0.8841,-0.8793,-0.8727,-0.868,-0.8608,-0.8572,-0.8556,-0.848,-0.8453,-0.8366,-0.8347,-0.8288,-0.8172,-0.8122,-0.8081,-0.8,-0.7987,-0.798,-0.7953,-0.7903,-0.7895,-0.7888,-0.7858,-0.7848,-0.7972,-0.7972,-0.7972,0,-0.8827,-0.8731,-0.8694,-0.8626,-0.8584,-0.8562,-0.8494,-0.8449,-0.8358,-0.8329,-0.8339,-0.8193,-0.8143,-0.8041,-0.8021,-0.7989,-0.7969,-0.7988,-0.7899,-0.7892,-0.7884,-0.7856,-0.7845,-0.7972,-0.7972,-0.7972,-0.7972,0,-0.8718,-0.8651,-0.8606,-0.8522,-0.8474,-0.8406,-0.8359,-0.8315,-0.8296,-0.8259,-0.8171,-0.8111,-0.8032,-0.8006,-0.7986,-0.7901,-0.7907,-0.7909,-0.7925,-0.7875,-0.7847,-0.7836,-0.7971,-0.7971,-0.7971,-0.7971,0,0,-0.8653,-0.8552,-0.8536,-0.8498,-0.8418,-0.8365,-0.8297,-0.8222,-0.8185,-0.8124,-0.8064,-0.7968,-0.7969,-0.7923,-0.7897,-0.7854,-0.7793,-0.786,-0.7858,-0.7849,-0.7696,-0.7695,-0.7683,-0.7786,-0.7783,-0.7782,-0.7702,0,-0.8579,-0.8457,-0.8424,-0.8321,-0.8259,-0.8238,-0.8178,-0.8122,-0.8087,-0.8028,-0.7988,-0.792,-0.7927,-0.7899,-0.7855,-0.781,-0.7762,-0.7816,-0.7729,-0.7726,-0.7746,-0.7668,-0.7666,-0.7594,-0.7691,-0.7689,-0.7688,0,-0.8474,-0.8414,-0.8305,-0.8235,-0.8207,-0.8155,-0.8084,-0.8028,-0.7965,-0.7942,-0.7892,-0.787,-0.7798,-0.782,-0.7719,-0.7756,-0.7719,-0.7692,-0.7688,-0.7677,-0.7703,-0.7654,-0.7569,-0.7558,-0.767,-0.7672,-0.7673,0,-0.8438,-0.8329,-0.825,-0.8218,-0.8134,-0.8098,-0.8061,-0.7999,-0.7957,-0.7894,-0.7866,-0.7796,-0.7757,-0.7702,-0.7662,-0.7682,-0.7565,-0.7584,-0.7543,-0.7544,-0.7517,-0.7519,-0.7424,-0.7496,-0.7496,-0.7496,-0.7496,0,-0.8357,-0.8291,-0.8233,-0.8184,-0.811,-0.8072,-0.7999,-0.7961,-0.7907,-0.785,-0.7828,-0.7774,-0.7725,-0.7665,-0.7634,-0.7555,-0.7538,-0.7516,-0.7508,-0.7517,-0.752,-0.7491,-0.7495,-0.7493,-0.7494,-0.7494,-0.7495,0,-0.8303,-0.8261,-0.8174,-0.8103,-0.8083,-0.8031,-0.797,-0.7921,-0.7886,-0.7814,-0.7795,-0.7739,-0.7667,-0.7623,-0.7531,-0.751,-0.7423,-0.7417,-0.7445,-0.7441,-0.7402,-0.7406,-0.7285,-0.7266,-0.7351,-0.735,-0.735,0,-0.8253,-0.8202,-0.8127,-0.8088,-0.8051,-0.7988,-0.7946,-0.7906,-0.7862,-0.7788,-0.7748,-0.7676,-0.7616,-0.7502,-0.7452,-0.7383,-0.7374,-0.7337,-0.7363,-0.7375,-0.7373,-0.7376,-0.737,-0.7332,-0.7331,-0.733,-0.733,0,-0.817,-0.8152,-0.8092,-0.8025,-0.7975,-0.792,-0.7864,-0.7833,-0.7785,-0.7737,-0.7664,-0.7618,-0.7526,-0.7454,-0.7381,-0.7341,-0.7327,-0.7322,-0.7309,-0.7317,-0.7335,-0.7324,-0.7432,-0.7325,-0.7325,-0.7326,-0.7326,-0.7326,-0.8115,-0.807,-0.801,-0.7944,-0.7899,-0.7848,-0.78,-0.7759,-0.7698,-0.7622,-0.7602,-0.7526,-0.7465,-0.7365,-0.7325,-0.7264,-0.7269,-0.725,-0.7245,-0.724,-0.724,-0.7346,-0.725,-0.7251,-0.7251,-0.7251,-0.7251,0,-0.803,-0.7991,-0.7931,-0.7856,-0.7804,-0.7798,-0.7737,-0.7693,-0.7627,-0.7572,-0.7514,-0.7431,-0.7362,-0.7308,-0.7236,-0.7199,-0.719,-0.7181,-0.7183,-0.7174,-0.7239,-0.7258,-0.7189,-0.7189,-0.7189,-0.7189,-0.7189,-0.7189,-0.798,-0.7902,-0.7878,-0.7778,-0.7739,-0.7666,-0.7631,-0.7585,-0.754,-0.745,-0.7393,-0.7359,-0.7303,-0.7228,-0.7164,-0.715,-0.7124,-0.7116,-0.7101,-0.7162,-0.7169,-0.7176,-0.7193,-0.7111,-0.7111,-0.704,-0.704,-0.7039]}]]